Theta_e
317 316 318 318 318 318 318 318 318 318 317 318 318 319 320 320 319 308 304 313 318 324 318 305 303 302 300 297 297 293 284 281 283 284 286 291 291 293 294 291 292 293 292 295 298
317 317 317 317 317 317 317 317 317 317 317 317 318 318 319 319 310 304 316 324 323 322 306 301 298 299 294 294 294 288 281 284 288 289 288 292 291 291 291 289 291 292 295 297 298
317 317 318 318 317 317 317 317 317 317 317 317 317 318 319 316 303 304 321 322 320 315 307 303 301 297 291 293 293 289 283 289 290 292 294 292 292 292 290 289 291 291 293 295 297
317 317 317 317 317 317 317 317 317 317 317 317 317 317 318 309 288 307 321 320 318 311 305 300 297 292 289 288 294 286 291 292 293 295 293 291 293 291 291 293 294 294 295 296 296
317 317 317 317 318 317 316 316 317 317 316 316 316 317 309 297 299 314 318 314 309 307 302 298 295 291 287 289 291 289 291 294 295 295 294 294 292 291 292 296 296 297 297 296 296
317 317 317 318 318 317 316 316 316 317 316 315 316 316 303 291 311 314 309 308 307 304 302 300 296 297 292 291 290 292 293 293 293 293 293 292 291 291 292 294 295 296 295 295 295
317 316 317 317 318 317 316 316 317 316 316 315 315 310 301 298 308 308 308 306 306 305 300 302 301 295 294 291 295 293 289 288 290 292 290 292 286 289 293 293 292 293 294 295 296
319 317 317 318 318 317 316 316 317 316 315 315 315 305 296 308 307 306 307 304 306 306 304 304 303 299 295 295 290 286 284 281 286 290 291 290 283 289 291 291 292 292 293 294 296
321 319 318 318 318 317 316 316 315 315 315 315 303 299 293 309 301 306 305 301 302 303 304 307 301 294 293 284 279 282 277 281 284 290 289 287 284 291 293 291 290 290 291 293 294
319 320 319 318 317 317 316 313 314 311 311 312 307 290 296 296 302 304 304 303 300 299 298 297 291 287 285 281 274 278 279 281 281 286 287 285 285 290 292 290 289 289 289 291 292
318 319 319 318 317 316 308 298 294 289 295 292 294 294 297 301 302 300 304 300 299 294 286 291 283 278 283 285 285 283 281 280 283 288 286 284 285 289 292 289 288 288 289 290 291
315 317 318 318 316 314 303 297 296 297 289 295 297 297 300 300 294 297 303 293 290 284 288 283 279 285 291 289 286 283 280 280 284 287 287 285 285 288 288 288 288 289 289 291 293
313 315 317 316 313 303 301 299 304 301 289 289 296 295 295 298 292 292 298 294 289 286 285 281 284 291 289 285 284 282 281 281 282 286 285 283 280 282 286 288 290 291 290 292 294
311 312 316 314 305 300 300 305 304 298 278 280 289 295 297 297 291 301 300 294 290 285 286 284 289 288 286 285 284 279 285 285 285 280 273 282 273 280 283 285 287 287 291 292 292
310 311 314 310 302 299 303 305 302 292 267 283 291 302 298 292 294 295 300 294 285 287 285 280 286 285 285 286 287 282 288 285 283 274 275 277 275 278 281 282 285 286 288 291 291
311 312 313 306 302 303 305 303 295 280 269 280 291 291 291 292 294 295 295 297 294 288 286 285 290 288 287 289 289 289 284 281 276 273 267 274 274 276 279 282 284 287 289 290 291
311 312 310 308 301 305 304 295 281 274 284 282 286 291 289 288 289 291 289 286 283 276 278 283 284 289 291 285 287 286 279 268 269 266 271 278 274 279 283 285 285 286 288 288 291
311 311 309 307 307 305 299 287 274 280 280 289 290 290 286 289 288 289 286 283 286 283 278 275 273 286 290 287 283 283 281 271 264 265 271 277 273 279 285 287 287 288 288 290 290
310 302 303 305 307 305 294 279 280 282 286 287 288 284 283 287 285 286 285 284 286 287 278 277 278 286 289 290 288 283 279 281 273 272 274 274 277 282 285 284 286 287 287 288 289
299 298 298 305 306 302 291 283 285 289 292 291 283 285 279 282 282 283 282 286 287 290 287 282 277 283 286 290 289 286 286 276 276 270 266 271 273 276 281 283 285 285 286 288 288
300 293 298 305 305 295 285 285 290 293 293 289 284 282 282 282 282 282 281 285 288 288 289 285 281 280 283 284 283 284 281 280 278 273 267 269 273 281 282 285 285 285 288 289 289
298 286 298 305 291 291 287 289 294 292 293 291 288 286 284 283 282 281 282 283 289 290 285 286 282 276 280 285 287 285 283 281 273 271 278 275 276 287 286 285 287 289 290 288 292
294 293 302 302 283 286 289 289 292 291 290 289 288 290 289 284 282 281 282 288 290 288 284 286 281 273 277 281 284 282 283 283 280 277 274 273 277 286 290 289 290 289 289 290 292
293 285 292 296 292 287 286 287 287 292 291 292 290 291 288 285 286 283 283 289 290 290 296 291 282 279 273 279 281 280 281 282 280 276 278 279 280 285 287 288 289 289 288 289 295
291 287 290 282 286 288 288 287 285 285 289 290 288 288 286 283 284 284 286 287 289 291 287 286 279 279 281 282 283 282 282 282 281 281 277 281 281 285 287 288 288 287 287 293 293
285 288 290 287 289 286 286 285 284 285 286 285 284 287 287 284 287 284 286 287 285 287 285 288 281 282 279 283 283 281 282 283 283 283 282 282 281 288 289 286 285 285 289 292 293
292 295 290 284 285 283 283 285 286 288 288 289 288 286 285 287 291 289 289 288 288 285 284 284 281 279 276 279 279 276 280 282 281 281 281 277 283 285 285 285 285 285 289 292 293
Wind_Speed
13 13 13 15 14 15 16 16 16 16 16 16 17 17 18 18 14 5 6 6 11 19 15 8 5 7 4 5 5 2 6 2 1 2 4 3 5 2 2 4 3 4 3 4 7
14 15 14 14 13 16 16 16 16 16 16 15 16 17 16 16 3 6 5 13 15 17 6 8 7 7 5 5 5 6 5 3 2 2 3 4 2 2 4 2 6 5 6 6 5
13 15 16 16 16 15 16 16 16 16 16 15 15 16 17 7 1 2 10 14 13 12 1 2 1 4 6 4 6 3 3 1 2 2 1 4 5 1 3 6 9 6 6 5 5
13 14 15 17 18 18 18 17 16 16 15 15 15 16 16 2 0 2 10 13 11 8 5 6 7 5 5 4 4 4 1 1 3 1 3 4 6 6 6 11 3 7 7 5 10
12 13 15 17 18 19 20 18 16 15 14 14 14 14 5 2 1 3 9 10 5 5 7 5 7 3 4 1 1 4 4 5 5 8 6 3 8 6 14 15 8 9 9 11 9
10 11 12 15 17 20 21 21 17 16 14 12 11 11 1 0 1 4 5 4 6 5 7 8 3 1 5 3 3 3 3 7 4 5 3 4 5 3 5 4 8 8 11 11 11
10 10 11 13 15 17 19 23 21 17 13 9 6 2 1 1 2 5 5 3 3 3 3 3 1 3 2 3 3 3 6 6 1 2 4 4 6 9 7 5 9 11 12 12 12
13 13 12 15 16 16 17 18 22 14 6 4 3 0 2 1 1 3 4 3 5 3 2 2 3 5 3 1 6 5 5 6 3 6 1 5 13 9 5 5 15 11 11 10 14
13 13 15 17 18 19 19 17 7 5 2 2 2 2 1 3 3 1 3 2 3 3 3 2 3 4 3 5 6 8 1 3 10 1 3 1 13 18 11 7 11 9 9 9 10
18 12 10 14 17 20 23 7 1 3 3 1 1 3 2 1 1 1 2 2 4 2 3 6 5 4 4 6 3 3 3 4 6 3 3 7 20 21 13 6 10 9 9 8 8
15 16 9 11 15 19 11 4 7 3 6 3 2 2 2 1 1 2 1 2 2 5 3 4 6 2 4 3 3 3 2 4 5 5 6 4 15 24 17 7 8 7 7 9 7
14 13 15 12 14 15 3 5 2 5 8 1 4 4 4 1 2 1 1 2 2 2 1 6 2 3 5 4 3 2 2 6 7 3 4 7 21 18 8 7 5 5 7 6 5
12 15 13 9 9 5 3 1 1 4 1 7 3 2 2 3 2 1 1 1 2 3 2 4 4 5 2 1 1 3 4 3 5 7 2 9 9 7 5 4 4 5 5 4 6
11 14 13 11 4 2 1 1 2 2 7 8 0 1 1 2 0 1 1 1 2 3 3 3 1 4 3 3 6 1 5 3 5 6 3 5 8 9 5 10 6 6 6 7 7
10 11 12 4 2 1 2 2 2 2 5 5 1 1 1 1 4 2 2 3 3 3 4 2 4 2 2 4 5 5 1 2 1 3 4 3 1 11 4 6 6 6 7 8 7
9 11 4 1 1 2 2 2 2 7 8 5 1 1 1 0 1 1 1 4 1 3 2 4 3 2 3 1 3 2 1 4 4 4 4 3 4 9 4 6 5 5 7 8 9
11 9 5 2 2 1 1 3 4 5 2 3 1 2 2 3 2 3 2 2 4 4 3 3 2 2 2 2 1 3 6 6 8 7 6 4 0 15 8 8 7 10 12 9 8
10 6 3 3 2 1 2 2 2 3 4 3 2 2 2 4 1 2 2 2 3 3 3 4 8 5 3 2 4 3 4 6 5 3 7 1 9 10 8 8 9 10 9 8 10
2 2 1 2 4 1 2 1 7 4 3 4 1 1 2 1 2 1 4 3 5 8 6 4 4 1 3 2 2 2 2 2 3 1 4 5 10 9 6 2 6 9 8 10 12
2 2 1 6 4 2 3 6 5 3 3 3 1 1 1 1 3 3 2 3 1 6 0 3 2 1 1 3 4 3 6 4 3 3 7 7 8 10 10 10 9 9 9 11 8
1 2 1 3 1 2 6 7 3 2 3 1 2 3 1 1 2 2 2 1 3 2 3 4 4 4 0 4 6 3 2 4 4 5 4 7 8 8 12 10 13 10 11 13 8
2 0 1 1 2 1 2 2 2 1 2 2 1 3 4 1 3 1 3 1 6 5 3 1 4 3 8 1 1 3 5 6 5 4 4 3 18 5 8 7 15 23 19 8 6
3 1 1 1 2 3 2 2 2 3 1 1 2 1 4 2 3 3 2 2 6 3 3 2 1 2 6 3 2 2 4 4 3 3 8 6 15 6 24 28 24 21 16 12 8
2 2 1 1 4 1 1 3 2 0 0 3 3 3 1 2 2 3 2 2 4 4 6 3 4 6 7 3 3 5 6 7 7 5 13 16 32 28 28 28 25 21 13 10 11
1 1 3 2 1 2 1 1 3 3 1 2 2 3 3 3 3 3 1 5 3 7 3 3 4 2 4 5 4 8 9 13 13 16 10 27 19 33 29 24 22 13 11 8 12
2 1 1 2 3 2 2 1 3 2 1 1 2 4 3 3 2 3 4 2 3 5 3 2 2 0 4 9 9 11 10 18 18 17 16 23 26 24 22 11 13 10 11 9 14
2 1 1 1 2 2 1 1 1 1 1 3 2 1 5 6 5 5 7 6 6 3 1 2 2 1 3 1 6 9 20 16 5 5 6 8 16 10 18 14 12 12 9 11 14
Wind_Direction
344 348 348 346 347 346 345 343 345 343 343 344 345 345 342 345 335 27 38 308 333 337 339 315 16 359 33 56 41 89 61 89 158 166 304 324 4 304 0 299 299 252 233 269 315
343 342 345 343 346 345 342 342 340 343 337 341 341 340 341 341 2 49 310 340 342 347 353 12 7 0 47 21 17 65 85 194 172 210 253 294 240 306 337 248 268 288 281 273 302
346 343 342 343 341 341 340 338 338 337 334 337 337 336 336 345 11 350 331 348 351 354 248 350 4 49 61 21 0 6 120 163 264 218 215 281 303 238 288 292 227 241 255 277 288
346 347 345 342 340 338 336 335 333 330 332 332 333 333 333 313 346 307 345 350 358 6 34 28 33 52 66 50 334 92 41 206 277 3 348 292 307 301 207 240 236 245 289 292 290
347 346 346 342 339 338 334 331 327 326 326 329 330 332 351 21 323 341 354 356 17 16 40 48 49 56 90 69 13 50 346 321 301 302 259 278 253 240 259 265 276 290 287 276 281
343 344 344 343 339 336 333 327 323 320 321 324 326 332 307 151 6 355 356 7 24 33 21 42 92 80 94 67 63 307 289 284 292 295 281 279 268 41 287 31 335 302 292 286 278
326 328 331 333 333 330 332 326 319 313 310 312 325 352 2 144 29 339 13 23 20 33 63 50 74 82 153 85 341 338 359 334 287 350 324 311 295 216 241 319 293 291 289 286 278
315 319 323 326 325 323 325 326 320 312 303 302 339 13 226 337 312 30 356 25 12 31 80 83 59 100 55 133 21 36 54 11 302 342 59 66 284 276 253 336 303 298 295 290 291
309 313 321 326 326 322 321 325 342 337 335 338 5 14 276 320 50 36 45 22 337 17 23 42 61 84 48 68 18 8 312 343 318 309 300 50 281 280 313 307 294 297 300 300 303
348 301 313 324 326 325 323 325 0 348 319 260 146 16 15 13 51 53 27 50 50 349 34 42 46 72 38 57 220 287 346 293 252 295 291 250 266 286 301 305 283 301 304 305 309
344 339 315 326 328 331 342 349 16 355 35 298 289 241 285 300 20 26 14 63 31 47 48 7 63 142 155 127 128 147 170 251 252 276 297 276 284 290 306 303 299 301 322 320 319
343 332 329 327 333 339 18 50 159 175 313 312 260 275 246 214 331 311 347 105 81 132 95 25 116 196 126 131 131 161 261 280 287 268 326 327 299 292 287 260 233 279 309 310 325
338 335 328 325 338 38 15 65 261 159 194 299 239 239 219 134 233 272 158 112 109 139 151 149 173 143 140 92 157 224 192 243 252 325 290 308 293 320 303 287 271 257 246 245 268
322 326 320 324 54 341 328 331 278 196 60 285 347 313 77 122 271 84 352 114 43 183 172 222 211 172 150 221 134 312 191 237 292 34 292 41 282 298 323 308 277 294 228 250 273
315 317 318 11 232 73 287 318 232 339 20 276 298 298 80 171 135 16 359 44 170 162 93 261 155 165 188 218 170 213 178 268 58 115 25 338 30 268 313 318 304 287 265 259 267
314 308 316 274 350 210 310 22 318 43 258 332 57 313 96 244 130 78 68 51 62 104 50 255 308 237 223 154 187 346 50 73 66 99 21 200 129 279 261 219 285 276 279 273 277
324 315 165 135 269 162 11 28 17 144 326 313 259 161 252 196 207 187 163 164 169 67 351 328 239 267 177 111 30 59 41 346 354 6 231 169 302 244 265 255 243 272 285 288 286
324 332 303 175 183 341 40 54 182 243 246 290 161 147 229 161 131 167 113 281 211 106 98 118 330 174 177 226 150 56 123 148 236 267 277 155 238 251 231 265 271 269 271 287 292
330 40 281 276 190 86 102 173 212 204 304 335 306 171 272 207 192 158 214 243 213 180 152 137 283 74 218 146 118 141 70 156 97 170 299 251 284 282 313 307 293 277 295 293 293
94 103 227 319 163 129 152 237 231 184 322 345 327 212 268 237 156 189 212 212 264 187 171 194 340 116 114 134 32 142 151 60 18 271 284 276 271 242 294 289 292 283 286 292 281
64 81 296 323 127 107 220 216 286 221 234 313 315 313 326 328 166 189 245 296 330 119 145 137 117 296 266 191 182 133 165 75 110 144 201 302 257 208 267 282 291 292 290 307 284
136 276 309 80 190 139 219 239 323 22 342 341 241 238 238 255 306 272 235 259 320 155 155 156 144 226 222 64 42 141 177 146 134 238 226 227 271 211 273 305 310 311 309 304 277
356 350 41 79 176 217 233 308 340 331 321 9 286 288 47 5 279 214 245 107 22 75 105 153 170 8 337 14 63 207 187 166 121 128 199 239 267 309 311 310 308 311 319 313 307
9 336 359 117 157 91 248 210 234 337 79 322 284 332 346 260 215 298 290 34 16 26 28 152 175 189 193 245 146 235 212 218 179 240 275 241 283 294 295 303 309 310 317 313 321
59 28 356 343 21 231 335 310 210 234 90 305 199 64 88 270 302 241 320 342 49 356 59 95 218 223 249 278 259 254 245 243 238 248 241 287 273 282 290 297 303 308 299 310 315
108 346 91 12 331 304 144 306 204 296 294 236 238 170 160 242 298 338 13 336 328 349 39 352 232 34 253 241 244 257 248 248 250 257 268 269 277 274 281 293 295 305 309 309 318
340 32 276 257 179 80 274 32 1 347 355 354 341 59 241 250 234 226 218 243 252 207 233 240 192 202 257 299 307 274 238 243 219 193 198 254 274 325 307 306 309 320 310 316 319